Showing default

HUYGENS, 55093

Orbit data source: Space-Track

HUYGENS, 55093 is a Norwegian payload satellite in SSO that was launched on Tue, 03 Jan 2023 UTC via an FALCON 9 launch vehicle from the Air Force Eastern Test Range (AFETR). Payload-class satellites include a variety of spacecraft equipped with specific instruments for various scientific and technological missions. These include communications satellites like Starlink; space stations such as the ISS; scientific satellites like the Hubble; Earth observation satellites from companies like Planet Labs, Umbra, and HawkEye 360; GPS; miniature CubeSats for education and research; and military/defense satellites.

Loading next visibility...
Identifier
55093, 2023-001CN
Orbit
SSO
Country
Flag of NONO / NOR
Related business
Manufacturer
NanoAvionics
Mission
Operational Civil Sigint
Bus & Motor
CUBESAT 6U, Unknown motor
Mass
10 kg wet, ~10 kg dry
Launch date (UTC)
2023-01-03 (3 years ago)
Launch vehicle
FALCON 9
Launch site
Air Force Eastern Test Range (AFETR)
Object type
Payload
Rocket body
Debris
Shape & HBR
Box + 2 Pan, 0.1 m
Radar Cross Section
0.080 m², Medium (>0.1 m² and < 1m²)

Expand to show TLE details & history
Last TLE update: 4 hours ago

TLE from 4 hours ago
0 HUYGENS
1 55093U 23001CN  26151.18660878  .00012310  00000-0  31249-3 0  9996
2 55093  97.3260 218.3682 0010902 138.3561 221.8517 15.39745659189750
Epoch: 2026-05-31T04:28Z
TLE epoch observation values (Epoch: 2026-05-31T04:28:42.998Z)
Latitude
-0.00004°
Longitude
-97.50285°
Altitude
455.527 km
Speed
7.636 km/s
True Right ascension
14h 33m 28s
True Declination
0° 00' 00"
Sunlit
Object was in full shadow at epoch
Visualization orbit readout
Latitude
Unknown
Longitude
Unknown
Altitude
Unknown
Speed
Unknown
Apparent Right ascension
Unknown
Apparent Declination
Unknown
Sunlit
N/A
Visualization observer readout
Local Sidereal Time
17:58:10
Azimuth
Unknown
Elevation
Unknown
Doppler factor
Unknown
Orbital elements
Apogee altitude
451.234 km
Perigee altitude
436.36 km
Semi-major axis
6,821.934 km
Eccentricity
0.00109
Inclination
97.326°
RAAN
218.3682°
Arg. of periapsis
138.3561°
True anomaly
221.76843°
Mean anomaly
221.8517°
Eccentric anomaly
221.81006°
Mean motion
3.85196 °/min
Orbital period
93.46 mins
BSTAR
0.00031249
Loading maneuver chart data...
Computing Atmospheric mass density...

Documentation

Showing up to 5 results
|